#timestamp,LO_Frequency,Hit,StdDev 
1594497615.7,286047000.0,N
1594497635.6,286047001.9,N
1594497655.4,286047002.1,N
1594497675.2,286047000.0,N
1594497695.1,286047000.8,N
1594497696.0,286047000.8,N
1594497715.8,286046999.0,N
1594497735.6,286046998.1,N
1594497755.5,286046999.3,N
1594497775.3,286046997.2,N
1594497795.2,286046997.8,N
1594497815.9,286046999.6,N
1594497835.7,286047000.1,N
1594497855.6,286046998.3,N
1594497875.4,286046998.4,N
1594497895.3,286046996.6,N
1594497915.1,286046995.7,N
1594497916.0,286046995.7,N
1594497935.8,286046997.4,N
1594497955.7,286046996.8,N
1594497975.5,286046997.3,N
1594497995.3,286046997.4,N
1594498015.2,286046999.4,N
1594498035.0,286046998.1,N
1594498035.9,286046998.1,N
1594498055.8,286047000.6,N
1594498075.6,286046998.7,N
1594498095.4,286046998.1,N
1594498115.3,286046998.8,N
1594498135.1,286046998.7,N
1594498155.9,286047001.0,N
1594498175.7,286047001.4,N
1594498195.5,286047001.6,N
1594498215.4,286046999.9,N
1594498235.2,286046999.8,N
1594498255.1,286047000.9,N
1594498256.0,286047000.9,N
1594498275.8,286047000.2,N
1594498295.6,286047002.8,N
1594498315.5,286047001.8,N
1594498335.3,286047005.9,Y
1594498355.2,286047002.6,P
1594498375.9,286046999.7,N
1594498395.7,286047003.2,N
1594498415.6,286047004.2,N
1594498435.4,286047001.9,N
1594498455.2,286047002.2,N
1594498475.1,286047004.3,N
1594498476.0,286047004.3,N
1594498495.8,286047002.8,N
1594498515.7,286046998.6,N
1594498535.5,286047000.0,N
1594498555.3,286047002.6,N
1594498575.2,286047004.1,N
1594498595.0,286046999.7,N
1594498595.9,286046999.7,N
1594498615.8,286047002.2,N
1594498635.6,286047002.8,N
1594498655.4,286046999.8,N
1594498675.3,286047002.3,N
1594498695.1,286047002.7,N
1594498715.8,286047002.6,N
1594498735.7,286047002.4,N
1594498755.5,286047002.3,N
1594498775.4,286047001.4,N
1594498795.2,286047003.2,N
1594498815.0,286047004.4,N
1594498815.9,286047004.4,N
1594498835.8,286047001.4,N
1594498855.6,286047001.5,N
1594498875.5,286047002.3,N
1594498895.3,286047002.1,N
1594498915.1,286047003.9,N
1594498935.9,286047002.2,N
1594498955.7,286047004.0,N
1594498975.6,286047001.4,N
1594498995.4,286047000.2,N
1594499015.2,286047000.1,N
1594499035.1,286047002.4,N
1594499036.0,286047002.4,N
1594499055.8,286047000.1,N
1594499075.6,286047002.3,N
1594499095.5,286047000.1,N
1594499115.3,286047002.6,N
1594499135.2,286047002.0,N
1594499155.9,286047000.3,N
1594499175.7,286047000.1,N
1594499195.6,286047000.0,N
1594499215.4,286047001.9,N
1594499235.3,286046999.8,N
1594499255.1,286047004.4,Y
1594499256.0,286047004.4,P
1594499275.8,286047001.0,N
1594499295.7,286046998.1,N
1594499315.5,286047000.9,N
1594499335.4,286046999.8,N
1594499355.2,286047000.5,N
1594499375.0,286046998.2,N
1594499375.9,286046998.2,N
1594499395.8,286046999.3,N
1594499415.6,286046999.5,N
1594499435.5,286046998.4,N
1594499455.3,286046998.1,N
1594499475.1,286047001.2,N
1594499495.9,286046999.4,N
1594499515.7,286046997.1,N
1594499535.5,286046996.7,N
1594499555.4,286046996.5,N
1594499575.2,286046998.8,N
1594499595.1,286046999.0,N
1594499596.0,286046999.0,N
1594499615.8,286046999.6,N
1594499635.6,286046999.6,N
1594499655.5,286046998.3,N
1594499675.3,286047001.0,N
1594499695.2,286046998.2,N
1594499715.9,286046998.2,N
1594499735.7,286047000.9,N
1594499755.6,286046998.1,N
1594499775.4,286047001.0,N
1594499795.3,286047000.0,N
1594499815.1,286047000.7,N
1594499816.0,286047000.7,N
1594499835.8,286047000.6,N
1594499855.7,286047002.2,N
1594499875.5,286047004.3,Y
1594499895.4,286047000.3,P
1594499915.2,286047000.2,N
1594499935.0,286047000.8,N
1594499935.9,286047000.8,N
1594499955.8,286047000.0,N
1594499975.6,286047002.1,Y
1594499995.4,286047002.0,P
1594500015.3,286047003.8,P
1594500035.1,286047002.2,N
1594500055.9,286047003.5,N
1594500075.7,286047003.9,Y
1594500095.5,286047000.0,P
1594500115.4,286046999.7,N
1594500135.2,286047000.6,N
1594500155.1,286046999.1,N
1594500156.0,286046999.1,N
1594500175.8,286046999.1,N
1594500195.6,286046996.6,Y
1594500215.5,286046999.6,P
1594500235.3,286047000.7,P
1594500255.2,286046996.9,P
1594500275.9,286046997.5,N
1594500295.7,286046999.3,N
1594500315.6,286046999.2,N
1594500335.4,286046999.0,N
1594500355.2,286046999.3,N
1594500375.1,286046996.9,N
1594500376.0,286046996.9,N
1594500395.8,286046999.4,N
1594500415.7,286046999.5,N
1594500435.5,286046996.7,N
1594500455.3,286046999.4,N
1594500475.2,286046998.6,N
1594500495.0,286046998.7,N
1594500495.9,286046998.7,N
1594500515.8,286046998.4,N
1594500535.6,286047000.8,N
1594500555.4,286046998.1,N
1594500575.3,286047000.3,N
1594500595.1,286046998.4,N
1594500615.8,286047000.4,N
1594500635.7,286046998.4,N
1594500655.5,286047000.3,N
1594500675.4,286047001.0,N
1594500695.2,286047001.0,N
1594500715.0,286046999.8,N
1594500715.9,286046999.8,N
1594500735.8,286047002.2,N
1594500755.6,286046999.9,N
1594500775.5,286047000.5,N
1594500795.3,286047000.4,N
1594500815.1,286047000.7,N
1594500835.9,286046999.9,N
1594500855.7,286047004.4,Y
1594500875.5,286047001.5,P
1594500895.4,286047004.2,P
1594500915.2,286047005.9,N
1594500935.1,286047003.4,N
1594500936.0,286047003.4,N
1594500955.8,286047002.9,N
1594500975.6,286047001.3,N
1594500995.5,286047004.0,N
1594501015.3,286047003.6,N
1594501035.2,286047003.3,N
1594501055.9,286047007.6,Y
1594501075.7,286047011.9,P
1594501095.6,286047002.0,N
1594501115.4,286047000.1,N
1594501135.2,286047000.4,N
1594501155.1,286047000.5,N
1594501156.0,286047000.5,N
1594501175.8,286047002.3,N
1594501195.7,286047002.5,N
